Starlink 36711

operational
NORAD ID: 68040 Int'l Des: 2026-041 Owner: SPXS Country: US Constellation: starlink
LEOCIRCULAR

关于 Starlink 36711

正在加载描述...

实时位置

正在加载3D地球...

即将过境

高度历史

Altitude vs Time

uPlot chart will show altitude changes over time

两行轨道根数

1 68040C 26041A 26061.44215278 .00459100 00000+0 61863-3 0 614
2 68040 53.1641 99.6777 0008489 277.7432 147.4070 16.05197679 11
Epoch: Mar 2, 2026 • Age: 29 hours

当前状态

高度 270.1 km
速度 7.75 km/s
星下点 53.32°N, 44.89°W
发射日期 Mar 2, 2026
运行时间 1 days
类型 internet

技术详情

分类 Payload
质量 575.00 kg
干质量 530.00 kg
总质量 575.00 kg
长度 0.30 m
直径 4.10 m
跨度 29.00 m
形状 Box + pan
制造商 SPXS
平台类型 Starlink V2MO
阶段状态 In Orbit
所有者/国家 SPXS/US

大型星座

Loading constellations...